Location: Guadanolo
(41.9167°N, 12.9333°E)
Time: 06:55:50
(UTC+00:00)

SL-8 Rocket - Pass Details

Date: 16 September 2019
Orbit: 956 x 991 km, 82.9° (Epoch: 17 October)

Event Time Altitude Azimuth Distance (km) Brightness Sun altitude
Rises 19:54:34 0° 348° (NNW) 3,670 7.6 -28.5°
Reaches altitude 10° 19:57:08 10° 345° (NNW) 2,714 6.9 -28.8°
Maximum altitude 20:03:11 58° 268° (W) 1,109 4.4 -29.8°
Enters shadow 20:04:45 45° 218° (SW) 1,281 4.5 -30.0°
